格洛纳斯M-727 COSMOS 2447 [GLONASS-M]

导读 | 星芒AI

COSMOS 2447(GLONASS-M)是俄罗斯GLONASS卫星导航系统的一部分,于2007年发射。该卫星属于GLONASS-M系列,旨在提供高精度的全球定位和导航服务。它运行在中地球轨道,设计寿命为7年,搭载了改进的导航信号和更稳定的原子钟,提高了系统的整体性能和可靠性。COSMOS 2447在俄罗斯及全球范围内的定位、导航和时间同步应用中发挥着重要作用。

基本信息
目录编号:
33466
目录名称:
COSMOS 2447 (GLONASS)
国际标识:
2008-067A
轨道中心:
EARTH
卫星名称:
格洛纳斯M-727
卫星全名:
格洛纳斯M-727 COSMOS 2447 [GLONASS-M]
卫星状态:
在轨 (已飞行6152 天)
发射日期:
2008-12-25 UTC
国别 :
俄罗斯(独联体) (CIS)
星等 :
--
轨道信息
数据来源 国际轨道数据
星历时间: 2025-10-27T09:13:00+0800
2天前
查看轨道信息
半长轴: 25507.586km
偏心率: 0.0006526
轨道倾角: 64.679°
近地点辐角 245.143°
升交点赤经 77.373°
平近点角 113.682°
近地点: 19112.804km
远地点: 19146.098km
周期: 675.715分钟
每日圈数: 2.131075
详细信息
平衡模式:
三轴稳定
覆盖范围:
全球
运营商:
列舍特涅夫卫星信息系统
运营商所在国:
俄罗斯
制造商(研发单位):
列舍特涅夫卫星信息系统
制造商所在国:
俄罗斯
使用方式:
暂无
卫星简介
格洛纳斯(GLONASS )是苏联/俄罗斯研制卫星导航系统。标准配置为24颗卫星,其中18颗卫星就能保证该系统为俄罗斯境内用户提供全部服务。该卫星已退役。
2D轨道图
3D轨道图
轨道高度分析图
轨道倾角分析图
轨道综合分析图
查看轨道综合分析图